• In Hungary
  • List of Countries
  • For 7 days
  • Water Temperature
  • Satellite Maps
  • Weather Map
  • News
  • Weather Widgets
  • user-avatar
    Login

    Hourly Weather Jaktorowo

    Today, 24 October, Wednesday

    Time Temperature Precipitation Wind Pressure Humidity
    00:00 +7°C° 0.2 mm 8 mps 741 mmHg 71%
    01:00 +6°C° 0.2 mm 8 mps 741 mmHg 69%
    02:00 +6°C° 0.1 mm 8 mps 741 mmHg 69%
    03:00 +5°C° 0.1 mm 8 mps 742 mmHg 69%
    04:00 +5°C° 0.1 mm 8 mps 742 mmHg 68%
    05:00 +4°C° 0 mm 7 mps 743 mmHg 66%
    06:00 +4°C° 0 mm 7 mps 743 mmHg 64%
    07:00 +3°C° 0 mm 6 mps 744 mmHg 61%
    08:00 +4°C° 0 mm 8 mps 745 mmHg 56%
    09:00 +5°C° 0 mm 9 mps 746 mmHg 51%
    10:00 +6°C° 0 mm 10 mps 746 mmHg 46%
    11:00 +6°C° 0 mm 10 mps 747 mmHg 45%
    12:00 +7°C° 0 mm 10 mps 747 mmHg 44%
    13:00 +7°C° 0 mm 10 mps 748 mmHg 43%
    14:00 +7°C° 0 mm 9 mps 748 mmHg 45%
    15:00 +6°C° 0 mm 8 mps 749 mmHg 48%
    16:00 +6°C° 0 mm 7 mps 749 mmHg 50%
    17:00 +5°C° 0 mm 6 mps 750 mmHg 53%
    18:00 +6°C° 0 mm 5 mps 750 mmHg 56%
    19:00 +5°C° 0 mm 5 mps 751 mmHg 59%
    20:00 +5°C° 0 mm 5 mps 751 mmHg 62%
    21:00 +4°C° 0 mm 4 mps 751 mmHg 65%
    22:00 +4°C° 0 mm 4 mps 751 mmHg 67%
    23:00 +4°C° 0 mm 4 mps 751 mmHg 69%

    Tomorrow, 25 October, Thursday

    Time Temperature Precipitation Wind Pressure Humidity
    00:00 +4°C° 0 mm 4 mps 751 mmHg 71%
    01:00 +4°C° 0 mm 4 mps 750 mmHg 73%
    02:00 +3°C° 0.2 mm 5 mps 750 mmHg 77%
    03:00 +3°C° 0.2 mm 5 mps 749 mmHg 81%
    04:00 +5°C° 0.2 mm 5 mps 748 mmHg 84%
    05:00 +5°C° 0.9 mm 6 mps 747 mmHg 86%
    06:00 +7°C° 0.9 mm 6 mps 746 mmHg 88%
    07:00 +8°C° 0.9 mm 7 mps 745 mmHg 90%
    08:00 +9°C° 0.5 mm 8 mps 745 mmHg 88%
    09:00 +9°C° 0.5 mm 8 mps 745 mmHg 86%
    10:00 +10°C° 0.5 mm 9 mps 744 mmHg 84%
    11:00 +10°C° 0.2 mm 9 mps 744 mmHg 80%
    12:00 +10°C° 0.2 mm 9 mps 744 mmHg 77%
    13:00 +10°C° 0.2 mm 9 mps 745 mmHg 74%
    14:00 +8°C° 0.1 mm 9 mps 745 mmHg 73%
    15:00 +8°C° 0.1 mm 9 mps 745 mmHg 71%
    16:00 +8°C° 0.1 mm 9 mps 745 mmHg 70%
    17:00 +7°C° 0 mm 8 mps 746 mmHg 72%
    18:00 +8°C° 0 mm 7 mps 746 mmHg 75%
    19:00 +7°C° 0 mm 6 mps 746 mmHg 77%
    20:00 +7°C° 0 mm 6 mps 747 mmHg 79%
    21:00 +7°C° 0 mm 6 mps 747 mmHg 80%
    22:00 +7°C° 0 mm 6 mps 747 mmHg 81%
    23:00 +6°C° 0 mm 5 mps 747 mmHg 83%

    Day after tomorrow, 26 October, Friday

    Time Temperature Precipitation Wind Pressure Humidity
    00:00 +6°C° 0 mm 5 mps 747 mmHg 84%
    01:00 +6°C° 0 mm 5 mps 747 mmHg 85%
    02:00 +6°C° 0 mm 5 mps 747 mmHg 85%
    03:00 +6°C° 0 mm 5 mps 747 mmHg 85%
    04:00 +6°C° 0 mm 5 mps 747 mmHg 85%
    05:00 +6°C° 0 mm 5 mps 747 mmHg 85%
    06:00 +6°C° 0 mm 5 mps 747 mmHg 85%
    07:00 +6°C° 0 mm 5 mps 747 mmHg 85%
    08:00 +6°C° 0 mm 5 mps 746 mmHg 82%
    09:00 +7°C° 0 mm 5 mps 746 mmHg 78%
    10:00 +8°C° 0 mm 5 mps 746 mmHg 75%
    11:00 +8°C° 0.2 mm 5 mps 746 mmHg 77%
    12:00 +9°C° 0.2 mm 6 mps 745 mmHg 79%
    13:00 +9°C° 0.2 mm 6 mps 745 mmHg 80%
    14:00 +9°C° 0.4 mm 6 mps 744 mmHg 81%
    15:00 +9°C° 0.4 mm 6 mps 743 mmHg 82%
    16:00 +10°C° 0.4 mm 6 mps 742 mmHg 82%
    17:00 +9°C° 0.2 mm 6 mps 742 mmHg 82%
    18:00 +9°C° 0.2 mm 6 mps 742 mmHg 81%
    19:00 +9°C° 0.2 mm 7 mps 741 mmHg 81%
    20:00 +9°C° 0.2 mm 7 mps 741 mmHg 81%
    21:00 +9°C° 0.2 mm 7 mps 741 mmHg 80%
    22:00 +7°C° 0.2 mm 8 mps 741 mmHg 80%
    23:00 +6°C° 0.1 mm 8 mps 741 mmHg 78%

    27 October, Saturday

    Time Temperature Precipitation Wind Pressure Humidity
    00:00 +6°C° 0.1 mm 8 mps 741 mmHg 77%
    01:00 +5°C° 0.1 mm 8 mps 741 mmHg 75%
    02:00 +5°C° 0.1 mm 8 mps 742 mmHg 76%
    03:00 +5°C° 0.1 mm 8 mps 742 mmHg 77%
    04:00 +5°C° 0.1 mm 8 mps 742 mmHg 78%
    05:00 +4°C° 0.1 mm 8 mps 743 mmHg 78%
    06:00 +4°C° 0.1 mm 7 mps 744 mmHg 78%
    07:00 +4°C° 0.1 mm 7 mps 744 mmHg 79%
    08:00 +4°C° 0 mm 7 mps 745 mmHg 76%
    09:00 +5°C° 0 mm 7 mps 746 mmHg 74%
    10:00 +5°C° 0 mm 6 mps 747 mmHg 71%
    11:00 +5°C° 0 mm 6 mps 747 mmHg 68%
    12:00 +7°C° 0 mm 5 mps 748 mmHg 65%
    13:00 +7°C° 0 mm 5 mps 748 mmHg 62%
    14:00 +7°C° 0 mm 4 mps 749 mmHg 64%
    15:00 +7°C° 0 mm 3 mps 749 mmHg 65%
    16:00 +7°C° 0 mm 2 mps 749 mmHg 67%
    17:00 +7°C° 0 mm 1 mps 750 mmHg 69%
    18:00 +7°C° 0 mm 1 mps 750 mmHg 72%
    19:00 +6°C° 0 mm 1 mps 751 mmHg 74%
    20:00 +6°C° 0 mm 1 mps 751 mmHg 74%
    21:00 +6°C° 0 mm 1 mps 751 mmHg 74%
    22:00 +6°C° 0 mm 1 mps 752 mmHg 75%
    23:00 +5°C° 0 mm 1 mps 752 mmHg 75%

    28 October, Sunday

    Time Temperature Precipitation Wind Pressure Humidity
    00:00 +5°C° 0 mm 1 mps 752 mmHg 76%
    01:00 +5°C° 0 mm 1 mps 752 mmHg 76%
    02:00 +4°C° 0 mm 2 mps 752 mmHg 77%
    03:00 +4°C° 0 mm 2 mps 752 mmHg 77%
    04:00 +4°C° 0 mm 2 mps 753 mmHg 77%
    05:00 +4°C° 0 mm 2 mps 753 mmHg 78%
    06:00 +3°C° 0 mm 2 mps 753 mmHg 78%
    07:00 +3°C° 0 mm 2 mps 753 mmHg 79%
    08:00 +4°C° 0 mm 2 mps 754 mmHg 75%
    09:00 +4°C° 0 mm 3 mps 754 mmHg 71%
    10:00 +5°C° 0 mm 3 mps 754 mmHg 67%
    11:00 +5°C° 0 mm 3 mps 754 mmHg 65%
    12:00 +7°C° 0 mm 3 mps 755 mmHg 64%
    13:00 +7°C° 0 mm 3 mps 755 mmHg 62%
    14:00 +7°C° 0 mm 3 mps 755 mmHg 64%
    15:00 +5°C° 0 mm 3 mps 755 mmHg 65%
    16:00 +5°C° 0 mm 3 mps 755 mmHg 67%
    17:00 +5°C° 0 mm 3 mps 755 mmHg 69%
    18:00 +4°C° 0 mm 3 mps 755 mmHg 71%
    19:00 +4°C° 0 mm 3 mps 756 mmHg 73%
    20:00 +4°C° 0 mm 4 mps 756 mmHg 74%
    21:00 +4°C° 0 mm 4 mps 756 mmHg 75%
    22:00 +4°C° 0 mm 4 mps 756 mmHg 76%
    23:00 +3°C° 0 mm 4 mps 756 mmHg 76%

    29 October, Monday

    Time Temperature Precipitation Wind Pressure Humidity
    00:00 +2°C° 0 mm 5 mps 755 mmHg 77%
    01:00 +2°C° 0 mm 5 mps 755 mmHg 77%
    02:00 +2°C° 0 mm 5 mps 755 mmHg 76%
    03:00 +2°C° 0 mm 6 mps 755 mmHg 75%
    04:00 +2°C° 0 mm 6 mps 755 mmHg 74%
    05:00 +2°C° 0.1 mm 6 mps 754 mmHg 74%
    06:00 +2°C° 0.1 mm 7 mps 754 mmHg 74%
    07:00 +2°C° 0.1 mm 7 mps 754 mmHg 74%
    08:00 +2°C° 0.1 mm 7 mps 754 mmHg 72%
    09:00 +2°C° 0.1 mm 8 mps 754 mmHg 70%
    10:00 +2°C° 0.1 mm 8 mps 754 mmHg 68%
    11:00 +2°C° 0.2 mm 8 mps 754 mmHg 67%
    12:00 +2°C° 0.2 mm 8 mps 754 mmHg 66%
    13:00 +4°C° 0.2 mm 8 mps 754 mmHg 64%
    14:00 +2°C° 0.1 mm 8 mps 754 mmHg 65%
    15:00 +3°C° 0.1 mm 7 mps 754 mmHg 66%
    16:00 +3°C° 0.1 mm 7 mps 754 mmHg 67%
    17:00 +2°C° 0 mm 7 mps 754 mmHg 68%
    18:00 +2°C° 0 mm 7 mps 754 mmHg 68%
    19:00 +2°C° 0 mm 7 mps 755 mmHg 69%
    20:00 +2°C° 0 mm 7 mps 755 mmHg 69%
    21:00 0°C° 0 mm 7 mps 755 mmHg 69%
    22:00 0°C° 0 mm 7 mps 756 mmHg 68%
    23:00 0°C° 0 mm 7 mps 756 mmHg 69%
    Show more